K1TTC Weather Reports


Display with metric or nautical units.
time (UTC)temp
F
wind
direction
speed
MPH
gust
MPH
rain 1hr
in
rain 24hr
in
rain mn
in
humidity
%
barometer
mb
20260507191514 64 334 5.0 12.0 0.00 0.21 0.03 24 1007.3
20260507190510 64 240 5.0 15.0 0.00 0.22 0.03 25 1007.3
20260507185514 64 249 5.0 11.0 0.00 0.22 0.03 27 1007.4
20260507184703 64 10 4.0 12.0 0.00 0.22 0.03 26 1007.5
20260507183512 64 341 4.0 11.0 0.00 0.22 0.03 28 1007.4
20260507182510 64 262 5.0 17.0 0.00 0.22 0.03 28 1007.6
20260507181509 64 351 6.0 15.0 0.00 0.22 0.03 24 1007.8
20260507180509 63 288 4.0 9.0 0.00 0.22 0.03 26 1007.7
20260507175508 63 4 7.0 15.0 0.00 0.22 0.03 25 1007.7
20260507174509 64 307 4.0 11.0 0.00 0.22 0.03 31 1007.6
20260507173509 64 283 5.0 12.0 0.00 0.22 0.03 27 1007.6
20260507172509 63 291 3.0 11.0 0.00 0.22 0.03 29 1007.6
20260507171511 62 282 3.0 10.0 0.00 0.22 0.03 32 1007.8
20260507170505 62 238 5.0 16.0 0.00 0.22 0.03 32 1008.0
20260507165503 62 292 5.0 14.0 0.00 0.22 0.03 33 1008.1
20260507164504 62 270 5.0 13.0 0.00 0.22 0.03 30 1008.1
20260507163502 62 324 6.0 14.0 0.00 0.22 0.03 32 1008.2
20260507162502 61 249 5.0 14.0 0.00 0.22 0.03 37 1008.3
20260507161654 60 221 4.0 9.0 0.00 0.22 0.03 42 1008.3
20260507160651 60 292 4.0 11.0 0.00 0.22 0.03 45 1008.3
20260507155651 59 326 4.0 10.0 0.00 0.22 0.03 49 1008.4
20260507154648 59 307 5.0 12.0 0.00 0.22 0.03 48 1008.5
20260507153502 59 278 3.0 9.0 0.00 0.22 0.03 49 1008.5
20260507152501 59 244 4.0 11.0 0.00 0.22 0.03 49 1008.7
20260507151501 58 324 3.0 9.0 0.00 0.22 0.03 51 1008.8
20260507150637 58 303 2.0 8.0 0.00 0.22 0.03 49 1009.0
20260507145502 59 276 2.0 8.0 0.00 0.22 0.03 48 1009.1
20260507144632 59 311 3.0 8.0 0.00 0.22 0.03 51 1009.2
20260507143502 58 215 2.0 8.0 0.00 0.22 0.03 50 1009.2
20260507142501 58 319 3.0 7.0 0.00 0.22 0.03 49 1009.1
20260507141501 58 275 3.0 8.0 0.00 0.22 0.03 50 1009.2
20260507140627 58 288 4.0 10.0 0.00 0.22 0.03 50 1009.2
20260507135626 58 296 2.0 6.0 0.00 0.22 0.03 52 1009.1
20260507134501 57 313 2.0 5.0 0.00 0.22 0.03 54 1009.1
20260507133501 56 309 3.0 7.0 0.00 0.22 0.03 55 1009.1
20260507132458 56 290 3.0 8.0 0.00 0.22 0.03 58 1009.4
20260507131456 55 283 3.0 8.0 0.00 0.22 0.03 61 1009.5
20260507130450 54 246 3.0 8.0 0.00 0.22 0.03 62 1009.6
20260507125448 53 291 3.0 7.0 0.00 0.22 0.03 64 1009.7
20260507124448 53 270 4.0 9.0 0.00 0.22 0.03 67 1009.6
20260507123450 52 268 3.0 8.0 0.00 0.22 0.03 68 1009.6
20260507122448 51 310 3.0 9.0 0.00 0.22 0.03 70 1009.7
20260507121448 50 291 2.0 6.0 0.00 0.22 0.03 71 1009.7
20260507120611 50 272 3.0 6.0 0.00 0.22 0.03 72 1009.8
20260507115617 49 295 3.0 6.0 0.00 0.22 0.03 73 1009.8
20260507114448 49 288 2.0 6.0 0.00 0.22 0.03 73 1009.6
20260507113449 49 253 2.0 6.0 0.00 0.22 0.03 74 1009.7
20260507112446 49 284 1.0 3.0 0.00 0.22 0.03 74 1009.6
20260507111446 49 290 1.0 3.0 0.00 0.22 0.03 74 1009.5
20260507110612 48 276 0.0 2.0 0.00 0.22 0.03 75 1009.4
20260507105447 48 280 1.0 3.0 0.00 0.22 0.03 75 1009.6
20260507104448 48 317 1.0 2.0 0.00 0.22 0.03 75 1009.3
20260507103444 48 318 0.0 2.0 0.00 0.22 0.03 75 1009.1
20260507102445 48 292 1.0 4.0 0.00 0.22 0.03 75 1008.9
20260507101444 48 303 2.0 5.0 0.00 0.22 0.03 76 1008.6
20260507100443 48 297 2.0 4.0 0.00 0.22 0.03 76 1008.9
20260507095444 48 307 2.0 5.0 0.00 0.22 0.03 76 1008.8
20260507094444 49 302 1.0 4.0 0.00 0.22 0.03 77 1009.3
20260507093558 49 275 0.0 2.0 0.00 0.22 0.03 77 1008.7
20260507092444 49 276 1.0 2.0 0.00 0.22 0.03 78 1009.0
20260507091554 49 272 1.0 4.0 0.00 0.22 0.03 78 1009.0
20260507090555 50 224 1.0 3.0 0.00 0.22 0.03 78 1009.3
20260507085551 50 282 0.0 2.0 0.00 0.22 0.03 78 1008.9
20260507084443 50 282 1.0 3.0 0.01 0.22 0.03 78 1008.7
20260507083444 50 261 2.0 5.0 0.01 0.22 0.03 78 1008.9
20260507082444 51 305 1.0 3.0 0.01 0.22 0.03 78 1008.5
20260507081444 51 276 1.0 2.0 0.01 0.22 0.03 79 1008.6
20260507080553 51 273 0.0 2.0 0.01 0.22 0.03 79 1008.4
20260507075443 51 281 0.0 3.0 0.01 0.22 0.03 79 1008.8
20260507074441 51 289 1.0 2.0 0.00 0.21 0.02 79 1008.7
20260507073441 51 289 0.0 1.0 0.00 0.21 0.02 79 1008.9
20260507072441 51 289 0.0 1.0 0.00 0.21 0.02 80 1008.3
20260507071536 51 289 0.0 1.0 0.00 0.21 0.02 80 1007.9
20260507070441 51 288 0.0 2.0 0.00 0.21 0.02 80 1008.0
20260507065442 51 289 1.0 3.0 0.00 0.21 0.02 80 1007.8
20260507064437 51 285 1.0 3.0 0.00 0.21 0.02 81 1007.9
20260507063437 52 274 0.0 3.0 0.00 0.21 0.02 81 1007.8
20260507062439 52 294 1.0 4.0 0.00 0.21 0.02 82 1007.9
20260507061503 52 299 2.0 4.0 0.00 0.21 0.02 82 1007.8
20260507060434 52 298 2.0 5.0 0.00 0.21 0.02 82 1007.9
20260507055449 53 311 2.0 5.0 0.00 0.21 0.02 82 1007.9
20260507054434 53 297 1.0 4.0 0.00 0.21 0.02 83 1008.2
20260507053430 54 288 1.0 2.0 0.00 0.21 0.02 83 1008.3
20260507052432 54 288 2.0 5.0 0.00 0.21 0.02 83 1008.2
20260507051429 54 337 2.0 3.0 0.01 0.21 0.02 83 1008.3
20260507050430 55 299 2.0 5.0 0.01 0.21 0.02 83 1008.2
20260507045429 55 296 2.0 4.0 0.03 0.21 0.02 83 1008.2
20260507044430 56 297 2.0 5.0 0.03 0.21 0.02 83 1008.2
20260507043429 56 301 2.0 6.0 0.03 0.21 0.02 83 1007.9
20260507042434 56 308 2.0 4.0 0.03 0.21 0.02 84 1007.9
20260507041428 56 259 2.0 5.0 0.02 0.20 0.01 84 1008.1
20260507040429 57 277 3.0 7.0 0.02 0.20 0.01 84 1008.3
20260507035428 57 265 3.0 8.0 0.00 0.18 0.18 84 1007.9
20260507034428 58 257 2.0 4.0 0.00 0.18 0.18 84 1007.7
20260507033428 59 263 3.0 7.0 0.00 0.18 0.18 84 1007.7
20260507032428 60 253 2.0 7.0 0.00 0.18 0.18 85 1007.4
20260507031428 60 201 1.0 5.0 0.00 0.18 0.18 84 1007.1
20260507030427 60 276 2.0 8.0 0.00 0.18 0.18 84 1007.1
20260507025426 60 206 3.0 11.0 0.00 0.18 0.18 84 1006.9
20260507024427 60 195 3.0 10.0 0.00 0.18 0.18 84 1007.0
20260507023426 60 224 4.0 8.0 0.00 0.18 0.18 84 1006.9
20260507022424 59 200 5.0 10.0 0.00 0.18 0.18 84 1007.1
20260507021421 59 184 3.0 8.0 0.00 0.18 0.18 84 1006.7
20260507020423 59 220 2.0 5.0 0.00 0.18 0.18 84 1006.9
20260507015422 59 161 4.0 8.0 0.00 0.18 0.18 84 1006.9
20260507014423 59 179 4.0 8.0 0.00 0.18 0.18 84 1007.1
20260507013422 59 188 3.0 7.0 0.00 0.18 0.18 84 1007.0
20260507012422 59 182 4.0 10.0 0.00 0.18 0.18 83 1007.1
20260507011421 59 174 4.0 8.0 0.00 0.18 0.18 83 1007.0
20260507010421 59 184 4.0 11.0 0.00 0.18 0.18 83 1007.1
20260507005419 60 189 3.0 7.0 0.00 0.18 0.18 83 1007.1
20260507004421 60 204 5.0 9.0 0.00 0.18 0.18 83 1007.0
20260507003417 60 205 3.0 8.0 0.00 0.18 0.18 82 1006.9
20260507002417 60 182 3.0 8.0 0.00 0.18 0.18 82 1006.9
20260507001418 60 191 4.0 8.0 0.01 0.18 0.18 82 1006.9
20260507000541 60 199 4.0 10.0 0.04 0.18 0.18 82 1006.8
20260506235539 60 168 4.0 12.0 0.06 0.18 0.18 81 1006.7
20260506234415 60 177 4.0 8.0 0.07 0.18 0.18 81 1006.8
20260506233415 60 175 4.0 8.0 0.08 0.18 0.18 81 1006.7
20260506232415 60 195 4.0 11.0 0.09 0.18 0.18 80 1006.8
20260506231416 60 159 5.0 9.0 0.08 0.17 0.17 80 1006.8
20260506230417 60 130 4.0 11.0 0.05 0.14 0.13 80 1007.0
20260506225416 60 163 4.0 9.0 0.03 0.12 0.12 79 1007.0
20260506224415 60 229 5.0 14.0 0.03 0.11 0.11 79 1007.0
20260506223415 60 253 4.0 8.0 0.02 0.10 0.10 79 1007.1
20260506222416 60 156 5.0 10.0 0.01 0.09 0.09 78 1007.1
20260506221409 60 185 5.0 11.0 0.02 0.09 0.09 78 1007.2
20260506220409 61 186 5.0 13.0 0.02 0.09 0.09 78 1007.3
20260506215410 61 182 4.0 9.0 0.03 0.09 0.09 77 1007.5
20260506214409 61 166 4.0 11.0 0.02 0.08 0.08 77 1007.4
20260506213410 61 160 5.0 10.0 0.03 0.08 0.08 77 1007.5
20260506212411 61 168 4.0 9.0 0.04 0.08 0.08 76 1007.7
20260506211410 61 193 5.0 9.0 0.04 0.07 0.07 76 1007.9
20260506210409 61 183 4.0 10.0 0.05 0.07 0.07 75 1007.9
20260506205408 62 195 5.0 12.0 0.04 0.06 0.06 75 1007.9
20260506204410 62 203 4.0 8.0 0.04 0.06 0.06 74 1008.2
20260506203410 62 218 4.0 8.0 0.04 0.05 0.05 73 1008.1
20260506202409 62 224 5.0 14.0 0.03 0.04 0.04 72 1008.1
20260506201409 63 201 7.0 16.0 0.03 0.03 0.03 71 1007.9
20260506200408 63 154 5.0 17.0 0.02 0.02 0.02 70 1007.9
20260506195409 64 186 6.0 15.0 0.02 0.02 0.02 69 1008.1
20260506194408 65 214 5.0 11.0 0.02 0.02 0.02 68 1008.0
20260506193410 65 263 4.0 9.0 0.01 0.01 0.01 66 1008.0
20260506192409 66 194 5.0 11.0 0.01 0.01 0.01 65 1007.9